Погода Охотский Перевоз

Погода Охотский Перевоз : погода сейчас, прогноз погоды и архив. Всё, что Вы хотите узнать о погоде Охотский Перевоз!

Поиск расширенной информации на нашем сайте:

Другие новости

Новости СМИ2

Главная страница сайта

Новости сайта

02.10.2013

Напоминаем, что на нашем новом сайте вы можете получить высокодетализированные прогнозы погоды по пунктам России, СНГ и мира (включающие важные для авиации метеовеличины, такие как направление и скорость ветра, видимость, явления погоды, количество и форма облачности, нижняя и верхняя граница облачности), а также ознакомиться с разнообразными материалами по авиационной метеорологии и подборкой полезных ссылок на эту тему.

Сайт Метеоцентр.Азия посвящён разработке технологий оптимизации авиаметеорологического обслуживания, включая проектирование и перспективное создание нескольких автоматизированных авиаметеорологических систем:
- система выпуска высокодетальных прогностических карт явлений погоды для нижнего воздушного пространства по России и ближнему зарубежью;
- система верификации прогнозов TAF (выпускаемых синоптиками официальных АМСГ РФ и ближнего зарубежья) и AUTOTAF (выпускаемых сайтом Метеоцентр.Азия) - выявление ошибок, онлайн-сопоставление с фактической погодой METAR, автоматическое внесение коррективов в прогнозы при резком отклонении фактической погоды от прогноза, подсчёт оправдываемости прогнозов по элементам и в целом;
- система обработки, анализа и отображения авиаметеорологической информации для применения провайдерами метеорологической информации.

Рекомендуем: Парк отдыха веслево Платная рыбалка.

Погода Охотский Перевоз - сегодня

Время (UTC), дата Ветер
(°,м/с) 
Видим.   Явления Облачность Т
(°С)
Тd
(°С)
f(%) Тe
(°С)
Pmin
(гПа)
dP
(гПа)
Po
(мм)
O2
(г/м3)
Тmin Tmax R s Состояние
почвы
03 20.03.17 010 (С) 20000 м    1/1 600 м 
[Cu hum]
-16.6 -17.9 90 -17  1025.6  -1.3  755  325           
06 20.03.17 360 (С) 20000 м    3/1 600 м средняя 
[Cu med, cong|Ac trans]
-9.1 -12 79 -11  1023.9  -1.2  754  315           
09 20.03.17 030 (СВ) 20000 м    3/0 верхняя 
[Ci fib]
-5.8 -11 67 -7  1023  -0.6  754  311    -4.8       
12 20.03.17 020 (С) 10 км    ясно 
-12.3 -14.3 85 -12  1023  -0.5  753  319           
15 20.03.17 тихо ()   10 км    ясно 
-20.2 -20.2 100 -20  1022.9  -0.7  753  329           
18 20.03.17 тихо ()   10 км    ясно 
-24.2 -24.2 100 -24  1022.1  -1.1  752  334           
21 20.03.17 тихо ()   10 км    ясно 
-27.4 -28 95 -27  1021.2  -1  751  338  -27.6      40  равномерный
сухой снег
100% 
00 21.03.17 340 (С) 20000 м    1/0 средняя 
[Ac trans]
-27.4 -28 95 -28  1021.1  -0.1  751  338  -29.4         
03 21.03.17 020 (С) 20000 м    ясно 
-17.5 -19.4 85 -18  1019.8  -0.6  751  325           
06 21.03.17 010 (С) 20000 м    1/0 верхняя 
[Ci fib]
-7.5 -13.5 62 -9  1018.4  -0.7  750  312           
09 21.03.17 010 (С) 20000 м    ясно 
-7.2 -14.7 55 -7  1018.6  0.2  750  312    -6.3       
12 21.03.17 200 (Ю) 10 км    ясно 
-13.7 -18 70 -14  1019.5  0.5  751  320           
15 21.03.17 тихо ()   10 км    ясно 
-20.8 -22 90 -21  1020.7  0.6  751  329           
18 21.03.17 тихо ()   10 км    ясно 
-25.6 -26.3 94 -26  1021.6  0.6  752  336           
21 21.03.17 тихо ()   10 км    ясно 
-27.7 -28.3 94 -28  1022.2  0.4  752  339  -27.7      40  равномерный
сухой снег
100% 
00 22.03.17 070 (В) 20000 м    ясно 
-26.2 -27.4 90 -27  1022.8  0.6  752  337  -28.8         
03 22.03.17 170 (Ю) 20000 м    ясно 
-16.6 -19.2 80 -22  1021.9  -0.2  752  324           
06 22.03.17 160 (Ю) 20000 м    ясно 
-2.2 -11.8 48 -4  1020  -0.7  752  306           
09 22.03.17 150 (ЮВ) 20000 м    8/0 верхняя 
[Ci fib]
-2.1 -11.6 48 -3  1020.2  0.2  752  306    -0.6       
12 22.03.17 тихо ()   10 км    4/0 верхняя 
[Ci fib]
-9.3 -13.8 70 -9  1021.7  0.9  752  315           
15 22.03.17 тихо ()   10 км    ясно 
-16.6 -18.5 85 -17  1022.9  0.6  753  324           
18 22.03.17 тихо ()   10 км    10/0 верхняя 
[Ci fib]
-21.1 -21.7 95 -21  1023.4  0.2  753  330           
21 22.03.17 320 (СЗ) 10 км    3/0 верхняя 
[Ci fib]
-23.8 -24.4 95 -24  1024.3  0.7  754  334  -23.8      37  равномерный
сухой снег
100% 
00 23.03.17 тихо ()   20000 м    6/0 верхняя 
[Ci fib]
-21.1 -21.3 98 -21  1024.7  0.6  754  331  -24.1         
03 23.03.17 020 (С) 20000 м    5/0 верхняя 
[Ci fib]
-13.2 -15.9 80 -13  1023.7  -0.4  754  320           
Время (UTC), дата Ветер
(°,м/с) 
Видим.   Явления Облачность Т
(°С)
Тd
(°С)
f(%) Тe
(°С)
Pmin
(гПа)
dP
(гПа)
Po
(мм)
O2
(г/м3)
Тmin Tmax R s Состояние
почвы

Для получения пояснительной информации подведите курсор к названию столбца.

ПОГОДА Охотский Перевоз - архив

Всё, что Вы хотите узнать о погоде Охотский Перевоз - удобно и подробно!

Выберите нужную дату (начиная с 1 января 2015* года) и нажмите кнопку "Найти".
Будут отображены архивные сводки погоды по пункту Охотский Перевоз, начиная с указанной даты.


Отображать данные в формате CSV (для использования в таблицах Excel)


Внимание! Наш архив погоды предназначен исключительно для личного некоммерческого использования в познавательных целях. Если Вам необходимы официальные справки о состоянии погоды (для производственных, юридических, коммерческих и т.п. целей), обращайтесь в органы Росгидромета.

*Примечание: данная дата относится к архиву по метеостанциям СССР (Россия, СНГ, Балтия).
Архив по метеостанциям Зарубежной Европы и Азии (кроме Китая) хранится 10 дней, по другим регионам земного шара (Китай, Африка, Америка, Австралия, Океания) - 1 день.

Охотский Перевоз - район местоположения метеостанции


Название, широта, долгота, высота метеостанции:
Охотский Перевоз 61.9°ш. 135.5°д. 140 м над ур. моря [Российская Федерация]

Дополнительная информация

В oтличие oт бoльшинства пoгoдных сайтoв мы публикуем пoдрoбную метеoинфoрмацию в детальнoм прoфессиoнальнoм фoрмате.

Характеристики температуры и влажнoсти вoздуха измеряются на высoте 2 м в тени вдали oт зданий и деревьев.
Скoрoсть ветра измеряется на высoте 10 м (на урoвне рoста челoвека скoрoсть ветра ниже в 1.5-2 раза). Если метеoстанция нахoдится в гoрoде или в лесу, тo скoрoсть ветра занижена на 2-4 м/с пo сравнению с oткрытым местoм. Скoрoсть ветра над акватoриями крупных рек и oзёр, а также на вершинах хoлмoв на 2-5 м/с выше, чем в oбычных услoвиях.
Атмoсфернoе давление в разных тoчках местнoсти мoжет значительнo oтличаться oт давления на метеoстанции, в зависимoсти oт услoвий рельефа (при пoдъёме на 10 м давление пoнижается примернo на 1 мм рт.ст.).